Topeka, KS

6:04 PM CST on February 23, 2017 (GMT -0600)
Billard Municipal

Weather History for KTOP - December, 2014

Change the Weather History Date:

Tuesday, December 2, 2014

  Actual Average Record
Temperature  
Mean Temperature 32 °F 36 °F  
Max Temperature 44 °F 46 °F 70 °F (1956)
Min Temperature 19 °F 26 °F 2 °F (1985)
Degree Days  
Heating Degree Days 33 29  
Month to date heating degree days 75 58  
Since 1 July heating degree days 1106 1052  
Cooling Degree Days 0 0  
Month to date cooling degree days 0 0  
Year to date cooling degree days 1611 1422  
Moisture  
Dew Point 11 °F    
Average Humidity 45    
Maximum Humidity 62    
Minimum Humidity 27    
Precipitation  
Precipitation 0.00 in 0.06 in 0.99 in (2003)
Month to date precipitation 0.00 0.11  
Year to date precipitation 28.88 35.22  
Snow  
Snow 0.00 in 0.10 in 2.00 in (1893)
Month to date snowfall 0.0 0.2  
Year to date snowfall 23.5 12.8  
Since 1 July snowfall 0.4 1.5  
Snow Depth 0.00 in    
Sea Level Pressure  
Sea Level Pressure 30.23 in    
Wind  
Wind Speed 7 mph (South)    
Max Wind Speed 18 mph    
Max Gust Speed 23 mph    
Visibility 10 miles    
Events      
T = Trace of Precipitation, MM = Missing Value Source: NWS Daily Summary

Daily Weather History Graph

Daily Weather History Graph

Search for Another Location

Airport or City:

Trip Planner

Search our weather history database for the weather conditions in past years. The results will help you decide how hot, cold, wet, or windy it might be!

Date:

Astronomy

Dec. 02, 2014 Rise Set
Actual Time 7:23 AM CST 5:00 PM CST
Civil Twilight 6:53 AM CST 5:29 PM CST
Nautical Twilight 6:20 AM CST 6:02 PM CST
Astronomical Twilight 5:48 AM CST 6:35 PM CST
Moon 2:41 PM CST (12/2) 3:08 AM CST (12/2)
Length of Visible Light 10h 35m
Length of Day
9h 36m
Waxing Gibbous, 84% of the Moon is Illuminated
Dec 2
Waxing Gibbous
Dec 6
Full
Dec 14
Last Quarter
Dec 21
New
Dec 28
First Quarter

Hourly Weather History & Observations

Time (CST) Temp. Windchill Dew Point Humidity Pressure Visibility Wind Dir Wind Speed Gust Speed Precip Events Conditions
12:53 AM 19.9 °F 14.9 °F 8.1 °F 60% 30.47 in 10.0 mi East 3.5 mph - N/A   Overcast
1:53 AM 21.9 °F 14.5 °F 9.0 °F 58% 30.44 in 10.0 mi ESE 5.8 mph - N/A   Overcast
2:53 AM 23.0 °F 17.0 °F 8.1 °F 53% 30.41 in 10.0 mi SE 4.6 mph - N/A   Overcast
3:53 AM 23.0 °F 14.7 °F 6.1 °F 48% 30.38 in 10.0 mi SSE 6.9 mph - N/A   Overcast
4:53 AM 24.1 °F 15.2 °F 7.0 °F 48% 30.36 in 10.0 mi SSE 8.1 mph - N/A   Overcast
5:31 AM 21.9 °F 14.5 °F 7.0 °F 53% 30.31 in 10.0 mi SSE 5.8 mph - N/A   Scattered Clouds
5:53 AM 21.0 °F 14.6 °F 8.1 °F 57% 30.34 in 10.0 mi SSE 4.6 mph - N/A   Clear
6:53 AM 21.9 °F 15.7 °F 8.1 °F 55% 30.32 in 10.0 mi South 4.6 mph - N/A   Clear
7:53 AM 21.9 °F 17.2 °F 10.0 °F 60% 30.32 in 10.0 mi South 3.5 mph - N/A   Clear
8:53 AM 26.1 °F 17.6 °F 10.0 °F 51% 30.32 in 10.0 mi SSW 8.1 mph - N/A   Clear
9:53 AM 30.0 °F 21.7 °F 9.0 °F 41% 30.28 in 10.0 mi SSW 9.2 mph - N/A   Clear
10:53 AM 34.0 °F 24.6 °F 9.0 °F 35% 30.25 in 10.0 mi SSW 13.8 mph - N/A   Clear
11:53 AM 37.9 °F 30.0 °F 8.1 °F 29% 30.19 in 10.0 mi SSW 12.7 mph - N/A   Clear
12:53 PM 39.0 °F 31.4 °F 8.1 °F 28% 30.14 in 10.0 mi SSW 12.7 mph 20.7 mph N/A   Clear
1:53 PM 42.1 °F 35.7 °F 10.0 °F 27% 30.10 in 10.0 mi South 11.5 mph 19.6 mph N/A   Clear
2:53 PM 43.0 °F 37.2 °F 14.0 °F 31% 30.08 in 10.0 mi SSW 10.4 mph 23.0 mph N/A   Clear
3:53 PM 43.0 °F 35.7 °F 15.1 °F 32% 30.08 in 10.0 mi South 15.0 mph - N/A   Clear
4:53 PM 41.0 °F 35.8 °F 15.1 °F 35% 30.08 in 10.0 mi South 8.1 mph - N/A   Clear
5:53 PM 37.9 °F 34.4 °F 15.1 °F 39% 30.11 in 10.0 mi South 4.6 mph - N/A   Clear
6:53 PM 36.0 °F 32.1 °F 15.1 °F 43% 30.13 in 10.0 mi South 4.6 mph - N/A   Clear
7:53 PM 35.1 °F 30.1 °F 16.0 °F 46% 30.14 in 10.0 mi South 5.8 mph - N/A   Clear
8:53 PM 32.0 °F 27.5 °F 16.0 °F 52% 30.15 in 10.0 mi South 4.6 mph - N/A   Clear
9:53 PM 30.9 °F 26.2 °F 17.1 °F 57% 30.15 in 10.0 mi South 4.6 mph - N/A   Clear
10:53 PM 30.0 °F 26.5 °F 17.1 °F 59% 30.16 in 10.0 mi South 3.5 mph - N/A   Clear
11:53 PM 27.0 °F 23.0 °F 16.0 °F 63% 30.17 in 10.0 mi SE 3.5 mph - N/A   Clear